AFR703 DIAP-LFPG

Flight info

Callsign AFR703
Flight time N/A
Altitude 30000
Route AD UG851 BKO UM122 BULIS DCT MABAP UR722 SAK UG5 KORIS L27 VJF DCT SVL DCT HIJ DCT RUSEM DCT SOTUK DCT USOKO DCT TLD DCT SIE DCT EDIGO DCT DGO DCT ABRIX DCT CNA DCT POI DCT PEPAX UT182 KEPER
Aircraft B77W/H-SDE1E2E3FGHIJ2J3J4J5M1RWXY/LB1D1

Departure

Time 2026-05-03 21:24
Airport Félix-Houphouët-Boigny International Airport (DIAP)

Arrival

Time N/A
Airport Charles de Gaulle International Airport (LFPG)
Time Latitude Longitude Altitude Speed Heading
2026-05-03 21:02 5.25469 -3.93149 24 ft 0 kts 287°
2026-05-03 21:12 5.25467 -3.93144 23 ft 3 kts 287°
2026-05-03 21:12 5.25459 -3.93123 24 ft 4 kts 308°
2026-05-03 21:12 5.25447 -3.93112 27 ft 4 kts 352°
2026-05-03 21:13 5.25427 -3.93115 26 ft 4 kts 23°
2026-05-03 21:13 5.25404 -3.93125 27 ft 2 kts 23°
2026-05-03 21:13 5.25403 -3.93125 27 ft 0 kts 22°
2026-05-03 21:15 5.25403 -3.93126 27 ft 0 kts 22°
2026-05-03 21:18 5.25409 -3.93123 27 ft 5 kts 22°
2026-05-03 21:18 5.25490 -3.93077 23 ft 17 kts 50°
2026-05-03 21:19 5.25481 -3.92962 24 ft 17 kts 113°
2026-05-03 21:19 5.25500 -3.92855 27 ft 17 kts 40°
2026-05-03 21:19 5.25608 -3.92802 27 ft 17 kts 22°
2026-05-03 21:19 5.25720 -3.92756 27 ft 17 kts 22°
2026-05-03 21:20 5.25832 -3.92711 27 ft 17 kts 22°
2026-05-03 21:20 5.25945 -3.92665 27 ft 17 kts 22°
2026-05-03 21:20 5.26057 -3.92620 28 ft 17 kts 21°
2026-05-03 21:20 5.26171 -3.92575 29 ft 17 kts 21°
2026-05-03 21:21 5.26284 -3.92530 28 ft 17 kts 21°
2026-05-03 21:21 5.26404 -3.92482 25 ft 23 kts 22°
2026-05-03 21:21 5.26615 -3.92396 27 ft 39 kts 22°
2026-05-03 21:21 5.26858 -3.92297 29 ft 36 kts 22°
2026-05-03 21:22 5.27079 -3.92200 31 ft 34 kts 24°
2026-05-03 21:22 5.27271 -3.92122 31 ft 27 kts 19°
2026-05-03 21:22 5.27393 -3.92105 28 ft 9 kts
2026-05-03 21:22 5.27417 -3.92057 27 ft 9 kts 108°
2026-05-03 21:23 5.27365 -3.92040 28 ft 9 kts 205°
2026-05-03 21:23 5.27327 -3.92088 30 ft 9 kts 220°
2026-05-03 21:23 5.27272 -3.92116 31 ft 7 kts 203°
2026-05-03 21:23 5.27244 -3.92128 31 ft 26 kts 203°
2026-05-03 21:24 5.26763 -3.92327 26 ft 122 kts 202°
2026-05-03 21:24 5.25700 -3.92762 106 ft 197 kts 202°
2026-05-03 21:24 5.24387 -3.93334 866 ft 207 kts 204°
2026-05-03 21:24 5.23229 -3.94027 2041 ft 192 kts 226°
2026-05-03 21:25 5.22622 -3.95262 2430 ft 217 kts 259°
2026-05-03 21:25 5.22802 -3.96870 2687 ft 249 kts 290°
2026-05-03 21:25 5.23816 -3.98358 3186 ft 268 kts 316°
2026-05-03 21:25 5.25397 -3.99378 3872 ft 278 kts 334°
2026-05-03 21:26 5.27211 -4.00134 4748 ft 282 kts 339°
2026-05-03 21:26 5.29060 -4.00826 5608 ft 285 kts 341°
2026-05-03 21:26 5.30924 -4.01518 6444 ft 288 kts 341°
2026-05-03 21:26 5.32811 -4.02228 7229 ft 292 kts 342°
2026-05-03 21:27 5.34736 -4.02966 8011 ft 296 kts 342°
2026-05-03 21:27 5.36658 -4.03714 8773 ft 300 kts 342°
2026-05-03 21:27 5.38596 -4.04478 9563 ft 304 kts 343°
2026-05-03 21:27 5.40588 -4.05271 10258 ft 310 kts 343°
2026-05-03 21:28 5.42654 -4.06095 10575 ft 332 kts 343°
2026-05-03 21:28 5.44879 -4.06982 10760 ft 358 kts 342°
2026-05-03 21:28 5.47294 -4.07953 10951 ft 383 kts 342°
2026-05-03 21:28 5.49787 -4.08962 11493 ft 393 kts 341°
2026-05-03 21:29 5.52350 -4.10007 12200 ft 400 kts 341°
2026-05-03 21:29 5.54954 -4.11071 13056 ft 404 kts 341°
2026-05-03 21:29 5.57558 -4.12135 13884 ft 407 kts 341°
2026-05-03 21:29 5.60184 -4.13207 14573 ft 412 kts 341°
2026-05-03 21:30 5.61961 -4.13930 15018 ft 415 kts 341°
2026-05-03 21:30 5.64650 -4.15025 15672 ft 421 kts 341°